Hourly Weather Eisenstadt

Today, 25 September, Friday

Time Temperature Precipitation Wind Pressure Humidity
00:00 +16°C° 0 mm 3 mps 714 mmHg 85%
01:00 +15°C° 0 mm 4 mps 714 mmHg 87%
02:00 +15°C° 0 mm 4 mps 713 mmHg 85%
03:00 +15°C° 0 mm 4 mps 712 mmHg 84%
04:00 +15°C° 0 mm 4 mps 712 mmHg 82%
05:00 +15°C° 1.5 mm 4 mps 711 mmHg 85%
06:00 +16°C° 1.5 mm 3 mps 711 mmHg 88%
07:00 +16°C° 1.5 mm 3 mps 710 mmHg 90%
08:00 +16°C° 2.8 mm 3 mps 711 mmHg 90%
09:00 +16°C° 2.8 mm 2 mps 711 mmHg 90%
10:00 +16°C° 2.8 mm 2 mps 711 mmHg 90%
11:00 +15°C° 1.1 mm 2 mps 710 mmHg 90%
12:00 +15°C° 1.1 mm 2 mps 710 mmHg 90%
13:00 +14°C° 1.1 mm 2 mps 710 mmHg 90%
14:00 +14°C° 0.6 mm 2 mps 709 mmHg 89%
15:00 +14°C° 0.6 mm 2 mps 709 mmHg 88%
16:00 +14°C° 0.6 mm 2 mps 708 mmHg 88%
17:00 +12°C° 0.2 mm 3 mps 708 mmHg 88%
18:00 +12°C° 0.2 mm 3 mps 708 mmHg 89%
19:00 +11°C° 0.2 mm 3 mps 707 mmHg 89%
20:00 +10°C° 0.5 mm 4 mps 707 mmHg 89%
21:00 +10°C° 0.5 mm 4 mps 706 mmHg 90%
22:00 +8°C° 0.5 mm 5 mps 706 mmHg 90%
23:00 +7°C° 3.2 mm 5 mps 705 mmHg 91%

Tomorrow, 26 September, Saturday

Time Temperature Precipitation Wind Pressure Humidity
00:00 +6°C° 3.2 mm 5 mps 705 mmHg 91%
01:00 +5°C° 3.2 mm 6 mps 704 mmHg 91%
02:00 +6°C° 3.1 mm 5 mps 704 mmHg 90%
03:00 +5°C° 3.1 mm 5 mps 704 mmHg 89%
04:00 +5°C° 3.1 mm 4 mps 704 mmHg 89%
05:00 +5°C° 0.1 mm 3 mps 705 mmHg 88%
06:00 +7°C° 0.1 mm 3 mps 706 mmHg 87%
07:00 +7°C° 0.1 mm 2 mps 706 mmHg 87%
08:00 +8°C° 0 mm 2 mps 707 mmHg 82%
09:00 +9°C° 0 mm 2 mps 708 mmHg 77%
10:00 +10°C° 0 mm 2 mps 708 mmHg 72%
11:00 +10°C° 0.7 mm 2 mps 708 mmHg 74%
12:00 +9°C° 0.7 mm 3 mps 709 mmHg 76%
13:00 +9°C° 0.7 mm 3 mps 709 mmHg 78%
14:00 +9°C° 0.3 mm 3 mps 709 mmHg 77%
15:00 +9°C° 0.3 mm 3 mps 709 mmHg 76%
16:00 +8°C° 0.3 mm 4 mps 710 mmHg 74%
17:00 +8°C° 0 mm 3 mps 710 mmHg 76%
18:00 +7°C° 0 mm 3 mps 710 mmHg 79%
19:00 +6°C° 0 mm 2 mps 710 mmHg 81%
20:00 +6°C° 0 mm 2 mps 711 mmHg 82%
21:00 +5°C° 0 mm 2 mps 711 mmHg 82%
22:00 +5°C° 0 mm 2 mps 712 mmHg 83%
23:00 +4°C° 0 mm 2 mps 712 mmHg 83%

Day after tomorrow, 27 September, Sunday

Time Temperature Precipitation Wind Pressure Humidity
00:00 +4°C° 0 mm 2 mps 712 mmHg 83%
01:00 +4°C° 0 mm 2 mps 712 mmHg 84%
02:00 +4°C° 0 mm 2 mps 712 mmHg 83%
03:00 +5°C° 0 mm 1 mps 712 mmHg 82%
04:00 +4°C° 0 mm 1 mps 712 mmHg 82%
05:00 +5°C° 0 mm 1 mps 712 mmHg 81%
06:00 +5°C° 0 mm 1 mps 712 mmHg 79%
07:00 +6°C° 0 mm 1 mps 713 mmHg 78%
08:00 +8°C° 0 mm 1 mps 713 mmHg 72%
09:00 +9°C° 0 mm 2 mps 713 mmHg 65%
10:00 +13°C° 0 mm 2 mps 714 mmHg 59%
11:00 +13°C° 0 mm 2 mps 714 mmHg 58%
12:00 +13°C° 0 mm 3 mps 714 mmHg 58%
13:00 +13°C° 0 mm 4 mps 714 mmHg 57%
14:00 +13°C° 0 mm 4 mps 714 mmHg 59%
15:00 +13°C° 0 mm 4 mps 714 mmHg 61%
16:00 +12°C° 0 mm 5 mps 714 mmHg 63%
17:00 +11°C° 0 mm 4 mps 715 mmHg 69%
18:00 +10°C° 0 mm 3 mps 715 mmHg 76%
19:00 +8°C° 0 mm 2 mps 715 mmHg 82%
20:00 +8°C° 0 mm 2 mps 715 mmHg 83%
21:00 +7°C° 0 mm 2 mps 716 mmHg 85%
22:00 +7°C° 0 mm 2 mps 716 mmHg 86%
23:00 +7°C° 0 mm 2 mps 716 mmHg 88%

28 September, Monday

Time Temperature Precipitation Wind Pressure Humidity
00:00 +7°C° 0 mm 1 mps 717 mmHg 89%
01:00 +7°C° 0 mm 1 mps 717 mmHg 91%
02:00 +7°C° 0 mm 1 mps 717 mmHg 91%
03:00 +6°C° 0 mm 1 mps 717 mmHg 92%
04:00 +6°C° 0 mm 1 mps 717 mmHg 92%
05:00 +7°C° 0 mm 1 mps 717 mmHg 90%
06:00 +7°C° 0 mm 1 mps 717 mmHg 89%
07:00 +8°C° 0 mm 1 mps 717 mmHg 87%
08:00 +10°C° 0 mm 1 mps 718 mmHg 79%
09:00 +12°C° 0 mm 1 mps 718 mmHg 71%
10:00 +14°C° 0 mm 1 mps 718 mmHg 64%
11:00 +15°C° 0 mm 1 mps 718 mmHg 60%
12:00 +16°C° 0 mm 1 mps 718 mmHg 57%
13:00 +16°C° 0 mm 1 mps 718 mmHg 54%
14:00 +16°C° 0 mm 1 mps 718 mmHg 56%
15:00 +16°C° 0 mm 1 mps 718 mmHg 59%
16:00 +15°C° 0 mm 1 mps 717 mmHg 62%
17:00 +14°C° 0 mm 1 mps 718 mmHg 67%
18:00 +12°C° 0 mm 0 mps 718 mmHg 71%
19:00 +10°C° 0 mm 0 mps 718 mmHg 76%
20:00 +11°C° 0 mm 1 mps 718 mmHg 77%
21:00 +11°C° 0 mm 1 mps 718 mmHg 77%
22:00 +11°C° 0 mm 1 mps 718 mmHg 78%
23:00 +11°C° 0.1 mm 1 mps 718 mmHg 78%

29 September, Tuesday

Time Temperature Precipitation Wind Pressure Humidity
00:00 +10°C° 0.1 mm 2 mps 718 mmHg 78%
01:00 +10°C° 0.1 mm 2 mps 718 mmHg 79%
02:00 +10°C° 0.1 mm 2 mps 718 mmHg 79%
03:00 +10°C° 0.1 mm 2 mps 718 mmHg 80%
04:00 +10°C° 0.1 mm 2 mps 718 mmHg 81%
05:00 +10°C° 0.1 mm 2 mps 718 mmHg 81%
06:00 +12°C° 0.1 mm 2 mps 719 mmHg 81%
07:00 +12°C° 0.1 mm 2 mps 719 mmHg 82%
08:00 +13°C° 0.2 mm 2 mps 719 mmHg 80%
09:00 +14°C° 0.2 mm 2 mps 720 mmHg 79%
10:00 +15°C° 0.2 mm 2 mps 720 mmHg 78%
11:00 +15°C° 0.2 mm 2 mps 720 mmHg 76%
12:00 +16°C° 0.2 mm 3 mps 720 mmHg 75%
13:00 +17°C° 0.2 mm 3 mps 721 mmHg 73%
14:00 +17°C° 0.1 mm 3 mps 721 mmHg 74%
15:00 +16°C° 0.1 mm 3 mps 721 mmHg 74%
16:00 +16°C° 0.1 mm 3 mps 721 mmHg 75%
17:00 +14°C° 0 mm 3 mps 721 mmHg 80%
18:00 +13°C° 0 mm 3 mps 721 mmHg 84%
19:00 +12°C° 0 mm 3 mps 722 mmHg 89%
20:00 +13°C° 0.1 mm 2 mps 722 mmHg 89%
21:00 +13°C° 0.1 mm 2 mps 722 mmHg 89%
22:00 +12°C° 0.1 mm 2 mps 722 mmHg 89%
23:00 +12°C° 0 mm 2 mps 722 mmHg 89%

30 September, Wednesday

Time Temperature Precipitation Wind Pressure Humidity
00:00 +12°C° 0 mm 2 mps 722 mmHg 89%
01:00 +12°C° 0 mm 2 mps 722 mmHg 89%
02:00 +10°C° 0 mm 2 mps 722 mmHg 90%
03:00 +11°C° 0 mm 1 mps 721 mmHg 90%
04:00 +11°C° 0 mm 1 mps 721 mmHg 90%
05:00 +11°C° 0 mm 1 mps 721 mmHg 89%
06:00 +11°C° 0 mm 1 mps 721 mmHg 89%
07:00 +12°C° 0 mm 1 mps 721 mmHg 88%
08:00 +13°C° 0 mm 1 mps 721 mmHg 84%
09:00 +14°C° 0 mm 1 mps 721 mmHg 80%
10:00 +15°C° 0 mm 1 mps 720 mmHg 76%
11:00 +16°C° 0 mm 1 mps 720 mmHg 73%
12:00 +16°C° 0 mm 1 mps 719 mmHg 71%
13:00 +18°C° 0 mm 1 mps 719 mmHg 69%
14:00 +18°C° 0.1 mm 1 mps 719 mmHg 71%
15:00 +16°C° 0.1 mm 1 mps 718 mmHg 73%
16:00 +16°C° 0.1 mm 1 mps 718 mmHg 75%
17:00 +15°C° 0 mm 1 mps 718 mmHg 79%
18:00 +14°C° 0 mm 1 mps 718 mmHg 83%
19:00 +13°C° 0 mm 1 mps 718 mmHg 88%
20:00 +13°C° 0 mm 1 mps 718 mmHg 88%
21:00 +12°C° 0 mm 1 mps 718 mmHg 88%
22:00 +12°C° 0 mm 1 mps 718 mmHg 89%
23:00 +12°C° 0 mm 1 mps 717 mmHg 89%
Show more